Other Surface Observations
Issued by NWS Charleston, SC

Current Version | Previous Version | Text Only | Print | Product List | Glossary On
Versions: 1 2 3 4 5 6 7 8 9 10 11 12 13 14 15 16 17 18 19 20 21 22 23 24 25 26 27 28 29 30 31 32 33 34 35 36 37 38 39 40 41 42 43 44 45 46 47 48 49 50
000
SXUS52 KCHS 202210
OSOCHS

MARINE OBSERVATIONS
NATIONAL WEATHER SERVICE CHARLESTON SC
500 PM EST SAT DEC 20 2014

...DOWNTOWN CHARLESTON AND HARBOR...

CITY           SKY/WX    TMP DP  RH WIND       PRES   REMARKS
WATERFRONT PRK   N/A     52 N/A N/A NE12        N/A
FORT JOHNSON   NOT AVBL

...LAKE MOULTRIE...

CITY           SKY/WX    TMP DP  RH WIND       PRES   REMARKS
PINOPOLIS        N/A     52  48  87 NE10      30.08S

...LAKE AND SUPPLEMENTAL COASTAL OBSERVATIONS...

STATION/POSITION TIME  TEMP    WIND        PRES    WAVE   SWELL
                       AIR SEA DIR/SP/G            HT/PER HT/PER/DIR
                 (UTC) (F)     (DEG/KT/KT) (MB)    (FT/S) (FT/S/D)
FORT PULASKI     2200   55 56   30/  5/  8 1021.3R
SAPELO ISLAND    2100   57      30/  7     1020.0S
UPR LAKE MARION  NOT AVBL
WINYAH BAY       2100   49      40/ 10     1021.0S
LAKE MURRAY      2100   48      30/  3/  6 1022.0R
ACE BASIN NERRS  2100   54      20/  3     1020.0S


...C-MAN AND BUOY OBSERVATIONS...

STATION/POSITION TIME  TEMP    WIND        PRES    WAVE   SWELL
                       AIR SEA DIR/SP/G            HT/PER HT/PER/DIR
                 (UTC) (F)     (DEG/KT/KT) (MB)    (FT/S) (FT/S/D)
BUOY 41004       2200   61 70   30/ 17/ 23 1019.9R   5/ 6   2/10
BUOY 41008       2200   58 58   40/ 14/ 17 1019.6R   3/ 5   2/110/10
FOLLY BEACH CMAN 2100   53      40/ 16/ 18 1021.6R
CAPERS NS BUOY   2100   53      50/ 17/ 19   N/A
FRIPP NS BUOY    NOT AVBL
5E ST. MARYS GA  2200      61                N/A     4/ 5


STATION/POSITION TIME  TEMP    WIND        PRES    WAVE   SWELL
                       AIR SEA DIR/SP/G            HT/PER HT/PER/DIR
                 (UTC) (F)     (DEG/KT/KT) (MB)    (FT/S) (FT/S/D)
FRYING PAN BUOY  2200   54 68   40/ 19/ 21 1022.2F   4/ 5
BUOY 41025       2200   47                 1023.8F   3/ 4
CAPE LOOKOUT NC  2100   43      20/ 13/ 15 1023.7R
BUOY 41002       2131   65 71   90/ 12/ 16 1020.2R   3/ 7   2/ 30/ 7
BUOY 41010       2200   73 77  270/  4/  6 1018.8R   2/11   2/ 90/11
ST AUGUSTINE FL  2200   61     360/ 18/ 19 1019.4R

$$



USA.gov is the U.S. government's official web portal to all federal, state and local government web resources and services.